Ten. Cel. Aviador César Bombonato Airport
SBUL : now visible

Airfield :











YOU CAN JOIN US ON...

 
LOGIN :

Register | Disclaimer

   EN    FR    IT 

 









Legend :    VFR   Marginal VFR   IFR   Intensive IFR   Very Intensive IFR
Visi :
Ceiling :
>= 8 km
>= 3000ft
5 to 8 km
1000 to 3000 ft
1500m to 5 km
500 to 1000 ft
800 to 1500m
200 to 500 ft
< 800m
< 200 ft
Symbols :   Thunderstorms  Fog  Heavy snow  Heavy precipitations  Wind > 20 kt






- Airport Elevation : 3094 ft
- IATA code : UDI


SBUL - Ten. Cel. Aviador César Bombonato

CURRENT METAR :
  • 250200Z 12003KT 8000 SCT004 11/10 Q1021

EXPIRED METARs :
  • 250100Z 16005KT 8000 -RA SCT003 11/10 Q1021
  • 250000Z 20006KT 6000 -RA BKN002 11/10 Q1022 RERA

TAF TAF SBUL
Valid from the 25 at 00:00 until the 25 at 12:00 UTC


242200Z 2500/2512 20005KT 4000 RADZ BKN003TX12/2500Z TN10/2509Z
BECMG 2504/2506 0500 FG BKN001
PROB30 2508/2512 8000 NSW FEW002 SCT010 RMK PGG
SBBS FIR / South America



MET'MAP, your aeronautical weather chart ! - Copyright ORBIFLY December 2007 - Disclaimer

ORBIFLY MET'MAP TEAM :

Programming & Development : Alexandra Zaïnal
Concept & original design : Baudouin d'Aumeries
Assistance for programming : Marc-Olivier Méhu
Technical & hardware support : Manuel Goepfert

Contact : metmap@orbifly.com




SOURCES & CREDITS :

   NOAA       Earth
Advisory